H1 CPF 2 NER 2023 8 27 9 239 01 glonass143 H2 2007501 9143 46805 2023 8 27 0 0 0 2023 8 30 23 45 0 900 1 1 0 0 0 1 H9 10 0 60183 0.00000 0 -12926652.827 -8492790.806 -20274836.227 10 0 60183 900.00000 0 -13823156.222 -10719084.264 -18558792.031 10 0 60183 1800.00000 0 -14784081.396 -12660837.083 -16482078.930 10 0 60183 2700.00000 0 -15755269.764 -14283762.572 -14085123.788 10 0 60183 3600.00000 0 -16678713.300 -15565793.485 -11414558.685 10 0 60183 4500.00000 0 -17495083.189 -16497751.991 -8522310.019 10 0 60183 5400.00000 0 -18146330.275 -17083486.587 -5464585.743 10 0 60183 6300.00000 0 -18578247.502 -17339471.978 -2300780.678 10 0 60183 7200.00000 0 -18742886.192 -17293890.432 907678.519 10 0 60183 8100.00000 0 -18600724.254 -16985234.825 4098526.051 10 0 60183 9000.00000 0 -18122494.938 -16460493.553 7209863.979 10 0 60183 9900.00000 0 -17290599.105 -15772994.805 10181359.992 10 0 60183 10800.00000 0 -16100041.520 -14980001.803 12955412.795 10 0 60183 11700.00000 0 -14558851.660 -14140160.652 15478262.825 10 0 60183 12600.00000 0 -12687971.049 -13310908.389 17701027.192 10 0 60183 13500.00000 0 -10520611.288 -12545950.046 19580639.501 10 0 60183 14400.00000 0 -8101108.837 -11892910.404 21080677.145 10 0 60183 15300.00000 0 -5483323.303 -11391258.570 22172060.873 10 0 60183 16200.00000 0 -2728644.688 -11070591.966 22833613.914 10 0 60183 17100.00000 0 96308.989 -10949351.282 23052470.470 10 0 60183 18000.00000 0 2922209.571 -11034020.091 22824326.071 10 0 60183 18900.00000 0 5679649.233 -11318842.692 22153525.051 10 0 60183 19800.00000 0 8301775.943 -11786072.370 21052983.190 10 0 60183 20700.00000 0 10726825.838 -12406740.245 19543946.424 10 0 60183 21600.00000 0 12900448.515 -13141913.281 17655589.447 10 0 60183 22500.00000 0 14777729.461 -13944389.518 15424460.878 10 0 60183 23400.00000 0 16324825.940 -14760760.162 12893784.637 10 0 60183 24300.00000 0 17520148.497 -15533752.479 10112629.993 10 0 60183 25200.00000 0 18355038.818 -16204755.263 7134965.439 10 0 60183 26100.00000 0 18833915.589 -16716420.454 4018614.182 10 0 60183 27000.00000 0 18973882.243 -17015230.788 824131.219 10 0 60183 27900.00000 0 18803813.159 -17053924.320 -2386376.104 10 0 60183 28800.00000 0 18362956.983 -16793672.282 -5550460.699 10 0 60183 29700.00000 0 17699116.324 -16205916.896 -8606557.186 10 0 60183 30600.00000 0 16866481.240 -15273789.987 -11495187.625 10 0 60183 31500.00000 0 15923208.692 -13993050.940 -14160127.034 10 0 60183 32400.00000 0 14928851.052 -12372502.893 -16549505.138 10 0 60183 33300.00000 0 13941743.109 -10433868.289 -18616822.162 10 0 60183 34200.00000 0 13016458.698 -8211127.792 -20321858.290 10 0 60183 35100.00000 0 12201444.939 -5749349.392 -21631458.826 10 0 60183 36000.00000 0 11536934.283 -3103055.968 -22520179.715 10 0 60183 36900.00000 0 11053222.577 -334199.062 -22970780.996 10 0 60183 37800.00000 0 10769385.623 2490176.946 -22974558.937 10 0 60183 38700.00000 0 10692487.946 5300483.256 -22531510.782 10 0 60183 39600.00000 0 10817316.590 8027241.761 -21650329.344 10 0 60183 40500.00000 0 11126650.482 10603736.775 -20348227.987 10 0 60183 41400.00000 0 11592053.288 12968553.512 -18650599.755 10 0 60183 42300.00000 0 12175155.603 15067898.283 -16590517.575 10 0 60183 43200.00000 0 12829371.716 16857604.665 -14208085.539 10 0 60183 44100.00000 0 13501977.907 18304743.064 -11549654.059 10 0 60183 45000.00000 0 14136464.041 19388767.731 -8666914.424 10 0 60183 45900.00000 0 14675058.740 20102154.736 -5615890.587 10 0 60183 46800.00000 0 15061321.202 20450505.760 -2455848.029 10 0 60183 47700.00000 0 15242689.948 20452114.911 751858.786 10 0 60183 48600.00000 0 15172880.766 20137018.297 3944977.734 10 0 60183 49500.00000 0 14814032.524 19545567.702 7061565.817 10 0 60183 50400.00000 0 14138510.265 18726589.470 10041187.873 10 0 60183 51300.00000 0 13130289.517 17735206.931 12826084.047 10 0 60183 52200.00000 0 11785863.314 16630418.465 15362283.670 10 0 60183 53100.00000 0 10114633.496 15472533.225 17600644.389 10 0 60183 54000.00000 0 8138769.290 14320572.140 19497797.092 10 0 60183 54900.00000 0 5892538.271 13229742.879 21016979.102 10 0 60183 55800.00000 0 3421136.607 12249094.140 22128740.335 10 0 60183 56700.00000 0 779066.061 11419446.881 22811509.550 10 0 60183 57600.00000 0 -1971876.218 10771688.467 23052010.398 10 0 60183 58500.00000 0 -4764913.148 10325500.612 22845519.595 10 0 60183 59400.00000 0 -7530813.907 10088573.984 22195962.370 10 0 60183 60300.00000 0 -10200527.673 10056342.226 21115843.083 10 0 60183 61200.00000 0 -12707816.962 10212246.678 19626011.796 10 0 60183 62100.00000 0 -14991782.482 10528521.056 17755270.469 10 0 60183 63000.00000 0 -16999175.462 10967463.687 15539825.339 10 0 60183 63900.00000 0 -18686401.816 11483144.431 13022594.984 10 0 60183 64800.00000 0 -20021134.894 12023475.021 10252386.380 10 0 60183 65700.00000 0 -20983469.547 12532555.958 7282954.024 10 0 60183 66600.00000 0 -21566569.063 12953201.071 4171959.720 10 0 60183 67500.00000 0 -21776777.684 13229532.884 979852.970 10 0 60183 68400.00000 0 -21633193.801 13309538.482 -2231306.295 10 0 60183 69300.00000 0 -21166721.724 13147476.829 -5399059.264 10 0 60183 70200.00000 0 -20418642.075 12706034.440 -8461769.873 10 0 60183 71100.00000 0 -19438761.401 11958136.764 -11359831.861 10 0 60183 72000.00000 0 -18283219.549 10888337.124 -14036836.793 10 0 60183 72900.00000 0 -17012047.975 9493722.959 -16440679.405 10 0 60183 73800.00000 0 -15686582.693 7784299.612 -18524578.026 10 0 60183 74700.00000 0 -14366841.668 5782834.134 -20247989.602 10 0 60183 75600.00000 0 -13108977.761 3524164.468 -21577401.228 10 0 60183 76500.00000 0 -11962914.895 1054002.017 -22486982.729 10 0 60183 77400.00000 0 -10970267.089 -1572723.039 -22959087.714 10 0 60183 78300.00000 0 -10162627.733 -4293905.088 -22984593.672 10 0 60183 79200.00000 0 -9560300.621 -7042610.302 -22563074.913 10 0 60183 80100.00000 0 -9171525.411 -9749630.193 -21702805.419 10 0 60183 81000.00000 0 -8992229.161 -12346135.541 -20420591.974 10 0 60183 81900.00000 0 -9006313.352 -14766320.555 -18741441.200 10 0 60183 82800.00000 0 -9186463.229 -16949927.622 -16698067.269 10 0 60183 83700.00000 0 -9495444.244 -18844548.120 -14330250.154 10 0 60183 84600.00000 0 -9887829.941 -20407604.125 -11684057.079 10 0 60183 85500.00000 0 -10312087.458 -21607929.269 -8810942.572 10 0 60184 0.00000 0 -10712931.808 -22426883.763 -5766745.110 10 0 60184 900.00000 0 -11033849.069 -22858958.572 -2610598.448 10 0 60184 1800.00000 0 -11219680.877 -22911843.778 596216.800 10 0 60184 2700.00000 0 -11219161.393 -22605961.070 3791464.211 10 0 60184 3600.00000 0 -10987298.810 -21973480.094 6913157.868 10 0 60184 4500.00000 0 -10487500.880 -21056861.639 9900762.024 10 0 60184 5400.00000 0 -9693354.634 -19906989.634 12696360.628 10 0 60184 6300.00000 0 -8589985.092 -18580971.034 15245774.339 10 0 60184 7200.00000 0 -7174935.477 -17139696.224 17499603.774 10 0 60184 8100.00000 0 -5458531.449 -15645262.263 19414179.460 10 0 60184 9000.00000 0 -3463713.332 -14158366.573 20952400.861 10 0 60184 9900.00000 0 -1225342.348 -12735779.674 22084449.057 10 0 60184 10800.00000 0 1210991.465 -11428001.908 22788360.078 10 0 60184 11700.00000 0 3790611.478 -10277201.299 23050448.461 10 0 60184 12600.00000 0 6451780.124 -9315517.946 22865573.241 10 0 60184 13500.00000 0 9128025.509 -8563805.094 22237241.363 10 0 60184 14400.00000 0 11750674.037 -8030858.999 21177546.277 10 0 60184 15300.00000 0 14251485.357 -7713169.525 19706942.366 10 0 60184 16200.00000 0 16565281.493 -7595201.839 17853858.735 10 0 60184 17100.00000 0 18632461.831 -7650197.556 15654158.770 10 0 60184 18000.00000 0 20401299.913 -7841461.946 13150454.861 10 0 60184 18900.00000 0 21829926.578 -8124083.384 10391290.446 10 0 60184 19800.00000 0 22887916.666 -8447012.866 7430204.334 10 0 60184 20700.00000 0 23557412.623 -8755415.912 4324694.820 10 0 60184 21600.00000 0 23833737.572 -8993197.326 1135103.385 10 0 60184 22500.00000 0 23725471.692 -9105591.539 -2076560.295 10 0 60184 23400.00000 0 23253988.364 -9041708.109 -5247828.783 10 0 60184 24300.00000 0 22452469.411 -8756923.468 -8316998.544 10 0 60184 25200.00000 0 21364440.937 -8215016.317 -11224338.236 10 0 60184 26100.00000 0 20041891.657 -7389954.791 -13913259.133 10 0 60184 27000.00000 0 18543053.458 -6267258.222 -16331424.009 10 0 60184 27900.00000 0 16929938.214 -4844874.437 -18431772.131 10 0 60184 28800.00000 0 15265735.167 -3133534.110 -20173439.813 10 0 60184 29700.00000 0 13612178.934 -1156565.947 -21522558.289 10 0 60184 30600.00000 0 12026999.168 1050820.712 -22452913.320 10 0 60184 31500.00000 0 10561559.215 3442756.662 -22946453.803 10 0 60184 32400.00000 0 9258782.775 5964386.654 -22993639.800 10 0 60184 33300.00000 0 8151455.121 8553926.854 -22593623.647 10 0 60184 34200.00000 0 7260969.453 11145020.505 -21754261.028 10 0 60184 35100.00000 0 6596569.939 13669293.877 -20491952.247 10 0 60184 36000.00000 0 6155121.988 16059006.329 -18831317.159 10 0 60184 36900.00000 0 5921418.055 18249684.332 -16804710.388 10 0 60184 37800.00000 0 5869004.655 20182630.074 -14451586.546 10 0 60184 38700.00000 0 5961494.397 21807200.532 -11817727.978 10 0 60184 39600.00000 0 6154306.421 23082762.507 -8954350.321 10 0 60184 40500.00000 0 6396760.678 23980242.735 -5917103.483 10 0 60184 41400.00000 0 6634436.651 24483209.177 -2764987.691 10 0 60184 42300.00000 0 6811696.107 24588439.266 440794.004 10 0 60184 43200.00000 0 6874262.687 24305952.405 3638024.253 10 0 60184 44100.00000 0 6771748.915 23658506.453 6764677.682 10 0 60184 45000.00000 0 6460023.607 22680580.346 9760121.395 10 0 60184 45900.00000 0 5903319.528 21416886.370 12566286.477 10 0 60184 46800.00000 0 5075992.235 19920475.100 15128788.044 10 0 60184 47700.00000 0 3963855.748 18250512.753 17397972.570 10 0 60184 48600.00000 0 2565038.506 16469824.094 19329872.803 10 0 60184 49500.00000 0 890323.011 14642303.362 20887052.597 10 0 60184 50400.00000 0 -1037045.915 12830300.949 22039326.060 10 0 60184 51300.00000 0 -3182077.417 11092094.144 22764337.940 10 0 60184 52200.00000 0 -5499246.959 9479546.613 23047994.655 10 0 60184 53100.00000 0 -7934155.819 8036053.280 22884738.048 10 0 60184 54000.00000 0 -10425570.329 6794855.412 22277656.732 10 0 60184 54900.00000 0 -12907757.838 5777795.397 21238432.645 10 0 60184 55800.00000 0 -15313023.809 4994562.600 19787123.331 10 0 60184 56700.00000 0 -17574345.973 4442461.401 17951783.339 10 0 60184 57600.00000 0 -19627997.041 4106710.895 15767931.036 10 0 60184 58500.00000 0 -21416047.409 3961263.664 13277870.046 10 0 60184 59400.00000 0 -22888643.861 3970109.262 10529877.405 10 0 60184 60300.00000 0 -24005969.047 4089007.619 7577273.187 10 0 60184 61200.00000 0 -24739799.433 4267579.257 4477389.052 10 0 60184 62100.00000 0 -25074595.869 4451663.849 1290455.365 10 0 60184 63000.00000 0 -25008080.421 4585846.961 -1921571.472 10 0 60184 63900.00000 0 -24551274.516 4616047.304 -5096218.283 10 0 60184 64800.00000 0 -23727996.354 4492053.937 -8171716.800 10 0 60184 65700.00000 0 -22573838.356 4169904.709 -11088213.163 10 0 60184 66600.00000 0 -21134667.617 3614003.831 -13788940.726 10 0 60184 67500.00000 0 -19464712.637 2798887.423 -16221332.423 10 0 60184 68400.00000 0 -17624317.115 1710560.889 -18338050.294 10 0 60184 69300.00000 0 -15677455.728 347350.185 -20097911.498 10 0 60184 70200.00000 0 -13689116.697 -1279770.257 -21466692.489 10 0 60184 71100.00000 0 -11722661.367 -3147387.954 -22417795.611 10 0 60184 72000.00000 0 -9837271.748 -5220393.283 -22932765.257 10 0 60184 72900.00000 0 -8085592.890 -7453220.656 -23001643.859 10 0 60184 73800.00000 0 -6511668.463 -9791538.632 -22623161.196 10 0 60184 74700.00000 0 -5149255.298 -12174318.764 -21804753.735 10 0 60184 75600.00000 0 -4020586.434 -14536197.138 -20562414.103 10 0 60184 76500.00000 0 -3135633.201 -16810030.297 -18920373.965 10 0 60184 77400.00000 0 -2491895.767 -18929539.116 -16910626.804 10 0 60184 78300.00000 0 -2074729.315 -20831930.530 -14572300.146 10 0 60184 79200.00000 0 -1858190.445 -22460387.966 -11950889.668 10 0 60184 80100.00000 0 -1806366.585 -23766326.792 -9097370.289 10 0 60184 81000.00000 0 -1875130.888 -24711321.002 -6067201.788 10 0 60184 81900.00000 0 -2014247.281 -25268621.145 -2919248.487 10 0 60184 82800.00000 0 -2169735.706 -25424200.626 285365.692 10 0 60184 83700.00000 0 -2286396.778 -25177287.395 3484444.322 10 0 60184 84600.00000 0 -2310388.552 -24540359.546 6615924.456 10 0 60184 85500.00000 0 -2191746.112 -23538605.831 9619077.989 10 0 60185 0.00000 0 -1886737.321 -22208874.559 12435684.880 10 0 60185 900.00000 0 -1359954.969 -20598154.656 15011157.224 10 0 60185 1800.00000 0 -586057.364 -18761654.661 17295589.064 10 0 60185 2700.00000 0 448916.663 -16760557.654 19244717.268 10 0 60185 3600.00000 0 1746713.704 -14659547.344 20820771.816 10 0 60185 4500.00000 0 3296548.445 -12524207.420 21993201.385 10 0 60185 5400.00000 0 5075317.256 -10418401.887 22739260.714 10 0 60185 6300.00000 0 7048335.043 -8401744.565 23044449.091 10 0 60185 7200.00000 0 9170565.995 -6527262.105 22902791.869 10 0 60185 8100.00000 0 11388298.581 -4839346.704 22316959.740 10 0 60185 9000.00000 0 13641196.727 -3372082.808 21298223.267 10 0 60185 9900.00000 0 15864643.339 -2148016.677 19866243.031 10 0 60185 10800.00000 0 17992280.115 -1177419.446 18048698.653 10 0 60185 11700.00000 0 19958638.989 -458074.005 15880762.843 10 0 60185 12600.00000 0 21701756.319 24405.692 13404429.571 10 0 60185 13500.00000 0 23165661.100 295736.479 10667708.276 10 0 60185 14400.00000 0 24302633.239 391644.312 7723698.803 10 0 60185 15300.00000 0 25075136.960 356114.899 4629564.355 10 0 60185 16200.00000 0 25457347.675 239290.678 1445422.047 10 0 60185 17100.00000 0 25436207.404 95103.426 -1766827.403 10 0 60185 18000.00000 0 25011963.495 -21256.691 -4944707.697 10 0 60185 18900.00000 0 24198167.167 -55927.579 -8026388.570 10 0 60185 19800.00000 0 23021131.256 41093.492 -10951896.417 10 0 60185 20700.00000 0 21518869.517 313582.256 -13664289.387 10 0 60185 21600.00000 0 19739561.876 796985.124 -16110773.183 10 0 60185 22500.00000 0 17739610.156 1516672.545 -18243735.072 10 0 60185 23400.00000 0 15581366.155 2486623.250 -20021675.350 10 0 60185 24300.00000 0 13330627.686 3708596.189 -21410017.805 10 0 60185 25200.00000 0 11054007.812 5171826.251 -22381783.295 10 0 60185 26100.00000 0 8816287.654 6853257.507 -22918113.429 10 0 60185 27000.00000 0 6677863.496 8718305.011 -23008634.481 10 0 60185 27900.00000 0 4692394.619 10722113.847 -22651654.832 10 0 60185 28800.00000 0 2904749.626 12811263.116 -21854192.551 10 0 60185 29700.00000 0 1349336.117 14925843.927 -20631833.005 10 0 60185 30600.00000 0 48882.329 17001824.708 -19008419.656 10 0 60185 31500.00000 0 -986279.783 18973605.083 -17015584.367 10 0 60185 32400.00000 0 -1758401.700 20776651.726 -14692126.650 10 0 60185 33300.00000 0 -2281969.722 22350106.078 -12083254.099 10 0 60185 34200.00000 0 -2582837.009 23639255.021 -9239699.057 10 0 60185 35100.00000 0 -2696874.594 24597761.345 -6216728.888 10 0 60185 36000.00000 0 -2668199.777 25189560.942 -3073069.340 10 0 60185 36900.00000 0 -2547058.011 25390347.645 130237.792 10 0 60185 37800.00000 0 -2387448.821 25188583.995 3331020.241 10 0 60185 38700.00000 0 -2244596.904 24585996.118 6467180.891 10 0 60185 39600.00000 0 -2172375.803 23597532.529 9477899.886 10 0 60185 40500.00000 0 -2220793.378 22250789.104 12304809.979 10 0 60185 41400.00000 0 -2433645.379 20584924.662 14893122.545 10 0 60185 42300.00000 0 -2846436.215 18649112.751 17192682.854 10 0 60185 43200.00000 0 -3484654.592 16500594.293 19158934.767 10 0 60185 44100.00000 0 -4362476.780 14202412.054 20753776.954 10 0 60185 45000.00000 0 -5481952.356 11820920.869 21946294.832 10 0 60185 45900.00000 0 -6832707.204 9423176.471 22713354.886 10 0 60185 46800.00000 0 -8392177.145 7074310.559 23040050.526 10 0 60185 47700.00000 0 -10126363.609 4835000.149 22919991.322 10 0 60185 48600.00000 0 -11991081.211 2759135.219 22355430.165 10 0 60185 49500.00000 0 -13933646.740 891780.483 21357225.744 10 0 60185 50400.00000 0 -15894940.681 -732484.922 19944640.558 10 0 60185 51300.00000 0 -17811756.758 -2090781.569 18144977.581 10 0 60185 52200.00000 0 -19619342.770 -3172647.735 15993061.606 10 0 60185 53100.00000 0 -21254027.504 -3980231.738 13530574.215 10 0 60185 54000.00000 0 -22655824.497 -4527950.927 10805254.164 10 0 60185 54900.00000 0 -23770903.813 -4841631.890 7869977.731 10 0 60185 55800.00000 0 -24553827.906 -4957168.225 4781736.203 10 0 60185 56700.00000 0 -24969457.143 -4918752.761 1600529.962 10 0 60185 57600.00000 0 -24994443.992 -4776759.230 -1611799.367 10 0 60185 58500.00000 0 -24618251.996 -4585363.511 -4792775.642 10 0 60185 59400.00000 0 -23843655.541 -4400005.938 -7880509.702 10 0 60185 60300.00000 0 -22686698.387 -4274803.075 -10814911.081 10 0 60185 61200.00000 0 -21176111.872 -4260019.766 -13538865.355 10 0 60185 62100.00000 0 -19352216.647 -4399709.760 -15999353.324 10 0 60185 63000.00000 0 -17265353.772 -4729626.046 -18148489.448 10 0 60185 63900.00000 0 -14973910.900 -5275490.561 -19944458.696 10 0 60185 64800.00000 0 -12542026.393 -6051697.488 -21352333.221 10 0 60185 65700.00000 0 -10037067.601 -7060505.924 -22344752.882 10 0 60185 66600.00000 0 -7526988.947 -8291756.763 -22902456.439 10 0 60185 67500.00000 0 -5077680.173 -9723126.440 -23014653.403 10 0 60185 68400.00000 0 -2750415.240 -11320907.394 -22679229.685 10 0 60185 69300.00000 0 -599507.901 -13041282.888 -21902783.472 10 0 60185 70200.00000 0 1329729.041 -14832042.977 -20700491.079 10 0 60185 71100.00000 0 3002636.697 -16634669.876 -19095805.731 10 0 60185 72000.00000 0 4396407.628 -18386705.423 -17119995.489 10 0 60185 72900.00000 0 5500779.511 -20024301.493 -14811529.552 10 0 60185 73800.00000 0 6318197.730 -21484846.532 -12215325.094 10 0 60185 74700.00000 0 6863441.945 -22709558.153 -9381869.523 10 0 60185 75600.00000 0 7162734.245 -23645933.147 -6366235.448 10 0 60185 76500.00000 0 7252368.200 -24249952.308 -3227007.732 10 0 60185 77400.00000 0 7176918.151 -24487947.724 -25143.799 10 0 60185 78300.00000 0 6987105.672 -24338054.457 3177210.427 10 0 60185 79200.00000 0 6737414.301 -23791185.998 6317925.755 10 0 60185 80100.00000 0 6483554.055 -22851492.901 9336092.587 10 0 60185 81000.00000 0 6279883.288 -21536285.655 12173198.112 10 0 60185 81900.00000 0 6176896.955 -19875425.203 14774255.237 10 0 60185 82800.00000 0 6218887.308 -17910206.677 17088861.754 10 0 60185 83700.00000 0 6441875.573 -15691782.806 19072169.860 10 0 60185 84600.00000 0 6871901.661 -13279192.413 20685747.986 10 0 60185 85500.00000 0 7523743.877 -10737075.495 21898319.073 10 0 60186 0.00000 0 8400122.568 -8133169.365 22686361.756 10 0 60186 900.00000 0 9491422.172 -5535687.428 23034563.858 10 0 60186 1800.00000 0 10775942.883 -3010691.807 22936118.906 10 0 60186 2700.00000 0 12220674.070 -619562.986 22392861.554 10 0 60186 3600.00000 0 13782557.327 1583326.219 21415237.939 10 0 60186 4500.00000 0 15410188.184 3552638.257 20022111.599 10 0 60186 5400.00000 0 17045886.758 5253716.435 18240407.824 10 0 60186 6300.00000 0 18628052.051 6663780.803 16104602.307 10 0 60186 7200.00000 0 20093702.434 7772625.038 13656062.924 10 0 60186 8100.00000 0 21381096.648 8582785.613 10942256.296 10 0 60186 9000.00000 0 22432325.686 9109176.536 8015833.534 10 0 60186 9900.00000 0 23195766.639 9378205.186 4933612.252 10 0 60186 10800.00000 0 23628294.811 9426406.777 1755474.190 10 0 60186 11700.00000 0 23697160.152 9298655.369 -1456800.167 10 0 60186 12600.00000 0 23381447.895 9046027.477 -4640736.965 10 0 60186 13500.00000 0 22673060.582 8723409.299 -7734390.329 10 0 60186 14400.00000 0 21577178.890 8386949.678 -10677555.085 10 0 60186 15300.00000 0 20112180.665 8091467.642 -13412946.317 10 0 60186 16200.00000 0 18309020.627 7887925.408 -15887321.886 10 0 60186 17100.00000 0 16210096.057 7821074.926 -18052525.283 10 0 60186 18000.00000 0 13867645.648 7927378.653 -19866427.851 10 0 60186 18900.00000 0 11341748.344 8233293.403 -21293751.703 10 0 60186 19800.00000 0 8698005.859 8753990.647 -22306757.182 10 0 60186 20700.00000 0 6005005.712 9492567.877 -22885781.556 10 0 60186 21600.00000 0 3331670.664 10439784.815 -23019618.774 10 0 60186 22500.00000 0 744604.900 11574335.916 -22705733.260 10 0 60186 23400.00000 0 -1694452.715 12863647.890 -21950304.030 10 0 60186 24300.00000 0 -3930962.853 14265168.867 -20768098.696 10 0 60186 25200.00000 0 -5919611.004 15728095.036 -19182180.217 10 0 60186 26100.00000 0 -7625940.537 17195462.213 -17223452.386 10 0 60186 27000.00000 0 -9027526.863 18606514.448 -14930053.205 10 0 60186 27900.00000 0 -10114645.297 19899250.096 -12346608.135 10 0 60186 28800.00000 0 -10890406.486 21013038.333 -9523357.969 10 0 60186 29700.00000 0 -11370355.638 21891196.114 -6515178.533 10 0 60186 30600.00000 0 -11581554.269 22483417.270 -3380511.478 10 0 60186 31500.00000 0 -11561184.816 22747951.657 -180227.260 10 0 60186 32400.00000 0 -11354738.466 22653442.848 3023557.354 10 0 60186 33300.00000 0 -11013863.890 22180347.249 6168684.083 10 0 60186 34200.00000 0 -10593968.593 21321875.162 9194156.680 10 0 60186 35100.00000 0 -10151674.763 20084414.391 12041319.917 10 0 60186 36000.00000 0 -9742237.303 18487418.640 14654991.353 10 0 60186 36900.00000 0 -9417032.999 16562765.255 16984524.348 10 0 60186 37800.00000 0 -9221226.540 14353608.883 18984782.290 10 0 60186 38700.00000 0 -9191711.412 11912778.338 20617006.000 10 0 60186 39600.00000 0 -9355412.083 9300782.764 21849558.240 10 0 60186 40500.00000 0 -9728018.690 6583509.094 22658531.806 10 0 60186 41400.00000 0 -10313207.454 3829705.303 23028210.086 10 0 60186 42300.00000 0 -11102379.867 1108352.689 22951371.671 10 0 60186 43200.00000 0 -12074932.258 -1513965.155 22429433.313 10 0 60186 44100.00000 0 -13199045.378 -3975588.850 21472428.334 10 0 60186 45000.00000 0 -14432962.091 -6222101.597 20098820.435 10 0 60186 45900.00000 0 -15726700.911 -8208344.156 18335155.738 10 0 60186 46800.00000 0 -17024134.841 -9900043.562 16215558.798 10 0 60186 47700.00000 0 -18265349.439 -11274988.332 13781081.264 10 0 60186 48600.00000 0 -19389181.991 -12323701.608 11078914.694 10 0 60186 49500.00000 0 -20335835.552 -13049584.394 8161481.817 10 0 60186 50400.00000 0 -21049458.016 -13468523.087 5085423.158 10 0 60186 51300.00000 0 -21480577.188 -13607978.040 1910498.315 10 0 60186 52200.00000 0 -21588288.520 -13505591.762 -1301576.879 10 0 60186 53100.00000 0 -21342102.138 -13207375.892 -4488334.324 10 0 60186 54000.00000 0 -20723369.965 -12765554.046 -7587774.769 10 0 60186 54900.00000 0 -19726231.305 -12236152.475 -10539581.519 10 0 60186 55800.00000 0 -18358035.681 -11676441.329 -13286302.133 10 0 60186 56700.00000 0 -16639223.806 -11142335.774 -15774474.224 10 0 60186 57600.00000 0 -14602670.630 -10685867.906 -17955672.634 10 0 60186 58500.00000 0 -12292517.247 -10352837.360 -19787456.958 10 0 60186 59400.00000 0 -9762540.024 -10180740.752 -21234200.608 10 0 60186 60300.00000 0 -7074124.857 -10197068.079 -22267785.147 10 0 60186 61200.00000 0 -4293930.988 -10418038.473 -22868146.461 10 0 60186 62100.00000 0 -1491341.724 -10847828.893 -23023662.426 10 0 60186 63000.00000 0 1264191.883 -11478328.370 -22731374.903 10 0 60186 63900.00000 0 3905804.013 -12289428.116 -21997042.165 10 0 60186 64800.00000 0 6371753.727 -13249835.115 -20835021.167 10 0 60186 65700.00000 0 8607746.256 -14318374.767 -19267982.325 10 0 60186 66600.00000 0 10568940.150 -15445727.491 -17326462.666 10 0 60186 67500.00000 0 12221557.823 -16576525.952 -15048266.319 10 0 60186 68400.00000 0 13544033.743 -17651724.419 -12477724.208 10 0 60186 69300.00000 0 14527653.885 -18611140.252 -9664827.593 10 0 60186 70200.00000 0 15176661.456 -19396060.360 -6664252.534 10 0 60186 71100.00000 0 15507826.306 -19951802.706 -3534294.463 10 0 60186 72000.00000 0 15549497.856 -20230124.890 -335733.896 10 0 60186 72900.00000 0 15340183.045 -20191378.333 2869344.423 10 0 60186 73800.00000 0 14926710.578 -19806317.380 6018755.825 10 0 60186 74700.00000 0 14362059.980 -19057487.172 9051419.868 10 0 60186 75600.00000 0 13702947.776 -17940131.944 11908541.063 10 0 60186 76500.00000 0 13007273.011 -16462585.469 14534743.440 10 0 60186 77400.00000 0 12331529.910 -14646127.048 16879137.337 10 0 60186 78300.00000 0 11728296.524 -12524308.650 18896298.374 10 0 60186 79200.00000 0 11243904.708 -10141780.662 20547140.363 10 0 60186 80100.00000 0 10916388.983 -7552664.380 21799666.101 10 0 60186 81000.00000 0 10773800.030 -4818537.912 22629582.299 10 0 60186 81900.00000 0 10832953.309 -2006117.931 23020767.495 10 0 60186 82800.00000 0 11098665.186 815267.825 22965584.348 10 0 60186 83700.00000 0 11563508.785 3576313.918 22465030.520 10 0 60186 84600.00000 0 12208100.257 6210368.686 21528725.085 10 0 60186 85500.00000 0 13001904.197 8655955.938 20174730.287 99